Location: Unspecified
(52.4292°N, 19.3359°E)
Time: 00:26:00
(UTC+02:00)

SR - Pass Details

Date: 03 June 2024
Orbit: 580 x 858 km, 66.7° (Epoch: 12 June)

Event Time Altitude Azimuth Distance (km) Brightness Sun altitude
Rises 18:55:55 0° 285° (WNW) 3,040 ? 15.4°
Reaches altitude 10° 18:59:13 10° 308° (NW) 2,068 ? 14.9°
Maximum altitude 19:02:00 15° 345° (NNW) 1,689 ? 14.5°
Drops below altitude 10° 19:04:41 10° 22° (NNE) 1,986 ? 14.1°
Sets 19:07:45 0° 45° (NE) 2,854 ? 13.7°
